SPACECUBE (42717 NORAD) Tracking and Keplerian Element Data

This shows tracking and keplerian element data for the satellite.

Feedback or suggestion? Click here.




ElementValue
Catalog42717
NameSPACECUBE
Epoch Orbit9005
Epoch Day352.59362615
Epoch Year2018
RAAN123.8705
Inclination51.6209
Eccentricity0.0003509
Argument of Perigee265.5853
Mean Anonmoly94.4751
Mean Motion15.87604926
Decay Rate0.00090374
L11 42717U 98067LY 18352.59362615 .00090374 00000-0 33072-3 0 9998
L22 42717 51.6209 123.8705 0003509 265.5853 94.4751 15.87604926 90055

Live tracking and technical data element details for SPACECUBE (NORAD 42717). SPACECUBE can be tracked NOW for your location showing map with azimuth and elevation plus other details from your city location.

Track the satellite on the map from your city or location and see movement details for azimuth, elevation, latitude, longitude, range, height, and movement on the map or in text.







IsCatalogInMostPopularTable: catalog: 42717, numindb: 161
Update: records affected: 1



GetName: 42717 SPACECUBE

Hit Count: updated at: Wed, 19 Dec 2018 16:01:36 GMT